User: anonymous   Login
Location: Vancouver
(49.2500°N, 123.1330°W)
Time: 02:44:26
(UTC-07:00)
Language:

AO-27 - Orbit

View from above orbital plane
View from above orbital plane
View from above satellite
View from above satellite

Ground track
Ground track

The orbit data is extracted from the following two-line orbital elements,

1 22825U 93061C   15090.88314929  .00000235  00000-0  10885-3 0  9992
2 22825 098.7009 041.0060 0008523 167.6325 261.9301 14.29855086121894
Epoch (UTC): 31 March 2015 21:11:44
Eccentricity: 0.0008523
inclination: 98.7009°
perigee height: 786 km
apogee height: 798 km
right ascension of ascending node: 41.0060°
argument of perigee: 167.6325°
revolutions per day: 14.29855086
mean anomaly at epoch: 261.9301°
orbit number at epoch: 12189

The dashed part of the orbit path shows where the satellite is in the earth's shadow,  

DLR